Location: Newark
(46.2048°N, 11.0412°E)
Time: 12:59:54
(UTC+00:00)

ISS - Visible Passes

Search period start: 23 September 2019 00:00
Search period end: 03 October 2019 00:00
Orbit: 411 x 421 km, 51.6° (Epoch: 23 September)

Date Brightness Start Highest point End Pass type
(mag) Time Alt. Az. Time Alt. Az. Time Alt. Az.
23 Sep -3.5 18:35:26 10° WSW 18:38:45 65° NNW 18:40:32 25° NE visible
23 Sep -0.5 20:12:51 10° WNW 20:13:26 14° WNW 20:13:26 14° WNW visible
24 Sep -3.8 17:46:57 10° WSW 17:50:16 86° SSE 17:53:36 10° ENE visible
24 Sep -2.2 19:24:12 10° WNW 19:26:57 33° NNW 19:26:57 33° NNW visible
25 Sep -2.6 18:35:31 10° W 18:38:40 39° NNW 18:40:23 22° NE visible
25 Sep -0.4 20:12:53 10° WNW 20:13:17 12° NW 20:13:17 12° NW visible
26 Sep -3.0 17:46:51 10° W 17:50:06 50° NNW 17:53:21 10° ENE visible
26 Sep -1.9 19:24:17 10° WNW 19:26:39 28° NNW 19:26:39 28° NNW visible
27 Sep -2.3 18:35:38 10° WNW 18:38:39 31° N 18:40:00 23° NE visible
27 Sep -0.2 20:12:42 10° WNW 20:12:53 11° NW 20:12:53 11° NW visible
28 Sep -2.5 17:46:55 10° WNW 17:50:01 34° N 17:53:06 10° ENE visible
28 Sep -1.8 19:24:10 10° WNW 19:26:11 27° NNW 19:26:11 27° NNW visible
29 Sep -2.5 18:35:36 10° WNW 18:38:37 31° N 18:39:28 27° NE visible
30 Sep -2.4 17:46:56 10° WNW 17:49:56 30° N 17:52:44 11° ENE visible
30 Sep -1.7 19:23:52 10° WNW 19:25:38 27° NW 19:25:38 27° NW visible
01 Oct -3.0 18:35:20 10° WNW 18:38:30 40° NNE 18:38:54 38° NE visible
02 Oct -2.7 17:46:44 10° WNW 17:49:50 34° N 17:52:12 15° ENE visible
02 Oct -1.6 19:23:28 10° WNW 19:25:05 26° WNW 19:25:05 26° WNW visible
